Location: Newark
(19.8968°N, 89.5281°W)
Time: 21:49:05
(UTC+00:00)

Envisat - Visible Passes

Search period start: 18 July 2019 00:00
Search period end: 28 July 2019 00:00
Orbit: 764 x 766 km, 98.1° (Epoch: 18 July)

Date Brightness Start Highest point End Pass type
(mag) Time Alt. Az. Time Alt. Az. Time Alt. Az.
19 Jul 5.6 01:35:18 10° SW 01:38:36 17° W 01:41:56 10° NW visible
20 Jul 4.1 00:56:56 10° S 01:01:48 47° W 01:06:39 10° NNW visible
22 Jul 5.3 01:23:21 10° SSW 01:27:20 23° W 01:31:20 10° NW visible
24 Jul 6.0 01:51:27 10° WSW 01:52:56 11° W 01:54:25 10° W visible
25 Jul 4.9 01:11:38 10° SSW 01:16:04 31° W 01:20:32 10° NW visible
27 Jul 5.7 01:38:42 10° SW 01:41:39 16° W 01:44:36 10° WNW visible
